FW6979 Weather Reports


time (UTC)temp
C
wind
direction
speed
KPH
gust
KPH
rain 1hr
cm
rain 24hr
cm
rain mn
cm
humidity
%
barometer
mb
20260906083049 21 0 0.0 0.0 0.00 0.00 0.00 89 1013.1
20260906081551 21 0 0.0 0.0 0.00 0.00 0.00 89 1013.0
20260906080044 21 0 0.0 0.0 0.00 0.00 0.00 89 1013.0
20260906074539 21 0 0.0 0.0 0.00 0.00 0.00 88 1012.8
20260906073046 21 0 0.0 0.0 0.00 0.00 0.00 88 1012.9
20260906071556 21 0 0.0 0.0 0.00 0.00 0.00 88 1012.8
20260906070044 21 0 0.0 0.0 0.00 0.00 0.00 88 1013.1
20260906064543 21 275 0.0 3.2 0.00 0.00 0.00 88 1013.1
20260906063047 22 0 0.0 0.0 0.00 0.00 0.00 88 1013.1
20260906061546 22 0 0.0 1.6 0.00 0.00 0.00 88 1013.3
20260906060045 22 0 0.0 1.6 0.00 0.00 0.00 88 1013.6
20260906054538 22 0 0.0 1.6 0.00 0.00 0.00 87 1013.8
20260906053039 22 0 0.0 1.6 0.00 0.00 0.00 87 1014.0
20260906051549 22 0 0.0 0.0 0.00 0.00 0.00 87 1014.2
20260906050110 22 0 0.0 1.6 0.00 0.00 0.00 87 1014.3
20260906044539 22 0 0.0 1.6 0.00 0.00 0.00 87 1014.3
20260906043050 22 0 0.0 1.6 0.00 0.00 0.00 87 1014.1
20260906041545 22 0 0.0 1.6 0.00 0.00 0.00 86 1014.2
20260906040046 23 0 0.0 1.6 0.00 0.00 0.00 86 1014.2
20260906034543 23 0 0.0 3.2 0.00 0.00 0.00 85 1014.5
20260906033046 23 0 0.0 0.0 0.00 0.00 0.00 85 1014.3
20260906031545 23 0 0.0 1.6 0.00 0.00 0.00 85 1014.5
20260906030040 23 0 0.0 3.2 0.00 0.00 0.00 85 1014.2
20260906024546 23 0 0.0 0.0 0.00 0.00 0.00 83 1013.7
20260906023044 23 0 0.0 0.0 0.00 0.00 0.00 84 1013.9
20260906021605 23 0 0.0 0.0 0.00 0.00 0.00 83 1014.2
20260906020047 24 0 0.0 0.0 0.00 0.00 0.00 83 1014.5
20260906014543 24 0 0.0 0.0 0.00 0.00 0.00 82 1014.3
20260906013049 24 0 0.0 0.0 0.00 0.00 0.00 82 1014.1
20260906011547 24 0 0.0 0.0 0.00 0.00 0.00 82 1014.0
20260906010047 24 0 0.0 0.0 0.00 0.00 0.00 81 1013.7
20260906004544 25 0 0.0 4.8 0.00 0.00 0.00 80 1013.5
20260906003045 25 0 0.0 1.6 0.00 0.00 0.00 79 1013.1
20260906001547 25 0 0.0 1.6 0.00 0.00 0.00 79 1013.1
20260906000046 25 0 0.0 1.6 0.00 0.00 0.00 77 1013.3
20260905234551 26 0 0.0 3.2 0.00 0.00 0.00 76 1013.3
20260905233043 26 0 0.0 4.8 0.00 0.00 0.00 74 1013.3
20260905231546 26 0 0.0 1.6 0.00 0.00 0.00 74 1013.2
20260905230051 27 277 0.0 4.8 0.00 0.00 0.00 71 1013.2
20260905224542 27 273 0.0 6.4 0.00 0.00 0.00 70 1013.3
20260905223046 27 0 0.0 3.2 0.00 0.00 0.00 71 1013.3
20260905221544 27 0 0.0 3.2 0.00 0.00 0.00 71 1013.2
20260905220044 27 0 0.0 6.4 0.00 0.00 0.00 69 1013.6
20260905214557 27 0 0.0 4.8 0.00 0.00 0.00 70 1013.6
20260905213047 27 0 0.0 3.2 0.00 0.00 0.00 68 1013.6
20260905211544 27 0 0.0 3.2 0.00 0.00 0.00 67 1013.6
20260905210047 28 0 0.0 3.2 0.00 0.00 0.00 67 1013.7
20260905204545 29 260 0.0 4.8 0.00 0.00 0.00 64 1013.7
20260905203045 28 253 0.0 0.0 0.00 0.00 0.00 62 1014.4
20260905201544 30 0 0.0 4.8 0.00 0.00 0.00 60 1014.6
20260905200044 28 0 0.0 6.4 0.00 0.00 0.00 61 1014.0
20260905194546 29 0 0.0 6.4 0.00 0.00 0.00 58 1015.2
20260905193044 30 0 0.0 4.8 0.00 0.00 0.00 60 1014.3
20260905191541 31 0 0.0 8.0 0.00 0.00 0.00 57 1014.2
20260905190041 32 0 0.0 1.6 0.00 0.00 0.00 53 1014.2
20260905184603 33 0 0.0 1.6 0.00 0.00 0.00 48 1013.7
20260905183046 35 289 0.0 6.4 0.00 0.00 0.00 44 1013.8
20260905181540 36 0 1.6 6.4 0.00 0.00 0.00 44 1013.7
20260905180049 36 311 1.6 6.4 0.00 0.00 0.00 43 1014.3
20260905174550 35 225 0.0 4.8 0.00 0.00 0.00 48 1014.5
20260905173045 35 324 0.0 6.4 0.00 0.00 0.00 49 1014.6
20260905171543 35 314 1.6 6.4 0.00 0.00 0.00 46 1014.5
20260905170043 35 0 0.0 9.7 0.00 0.00 0.00 51 1014.8
20260905164540 34 190 0.0 3.2 0.00 0.00 0.00 50 1015.2
20260905163052 34 0 0.0 4.8 0.00 0.00 0.00 53 1015.6
20260905161544 33 35 0.0 4.8 0.00 0.00 0.00 57 1015.6
20260905160050 33 263 0.0 4.8 0.00 0.00 0.00 60 1015.5
20260905154548 32 257 0.0 4.8 0.00 0.00 0.00 64 1015.7
20260905153045 32 259 0.0 3.2 0.00 0.00 0.00 62 1015.9
20260905151544 31 0 0.0 6.4 0.00 0.00 0.00 65 1016.0
20260905150042 31 267 3.2 9.7 0.00 0.00 0.00 66 1016.0
20260905144551 30 277 0.0 3.2 0.00 0.00 0.00 70 1015.9
20260905143047 29 0 0.0 3.2 0.00 0.00 0.00 72 1016.0
20260905141602 28 277 0.0 1.6 0.00 0.00 0.00 75 1015.8
20260905140053 27 280 0.0 4.8 0.00 0.00 0.00 75 1016.0
20260905134602 27 278 1.6 6.4 0.00 0.00 0.00 77 1016.1
20260905133054 26 257 0.0 9.7 0.00 0.00 0.00 79 1016.4
20260905131553 26 288 1.6 4.8 0.00 0.00 0.00 82 1016.1
20260905130042 23 263 0.0 3.2 0.00 0.00 0.00 88 1016.2
20260905124547 23 0 0.0 0.0 0.00 0.00 0.00 90 1016.0
20260905123045 22 0 0.0 0.0 0.00 0.00 0.00 90 1015.9
20260905121542 22 0 0.0 0.0 0.00 0.00 0.00 90 1015.9
20260905120046 22 0 0.0 0.0 0.00 0.00 0.00 89 1015.7
20260905114620 22 0 0.0 0.0 0.00 0.00 0.00 89 1015.5
20260905113039 22 0 0.0 0.0 0.00 0.00 0.00 89 1015.2
20260905111549 22 0 0.0 0.0 0.00 0.00 0.00 89 1015.1
20260905110044 22 0 0.0 0.0 0.00 0.00 0.00 89 1015.0
20260905104541 22 0 0.0 0.0 0.00 0.00 0.00 88 1015.0
20260905103040 22 0 0.0 0.0 0.00 0.00 0.00 89 1014.9
20260905101539 22 0 0.0 0.0 0.00 0.00 0.00 88 1014.9
20260905100106 22 0 0.0 0.0 0.00 0.00 0.00 88 1014.9
20260905094551 22 0 0.0 0.0 0.00 0.00 0.00 88 1014.9
20260905093040 22 0 0.0 0.0 0.00 0.00 0.00 88 1015.0
20260905091551 22 0 0.0 0.0 0.00 0.00 0.00 88 1015.0
20260905090044 23 0 0.0 0.0 0.00 0.00 0.00 88 1014.9
20260905084545 23 0 0.0 0.0 0.00 0.00 0.00 87 1015.0